DateTimeUTC,F1_A11,F1_S11,BsB_S11,BsG_S11,BsR_S11,BbsB_S11,BbsG_S11,BbsR_S11,BaB_A11,BaG_A11,BaR_A11,Tu_S11,T_S11,Uu_S11,U_S11,P_S11,T1_A11
2021-11-10T09:00:00Z,00000200,21000000,,,,,,,-000.46,-000.76,-000.07,18.1,25.1,,00.0,0639.5,30.9
2021-11-10T09:01:00Z,00000200,21000000,,,,,,,0000.09,0000.39,-000.28,18.1,25.1,,00.0,0639.5,30.9
2021-11-10T09:02:00Z,00000200,21000000,,,,,,,-000.19,-000.17,0000.06,18.1,25.1,,00.0,0639.6,31.0
2021-11-10T09:03:00Z,00000200,61000000,,,,,,,-000.70,-000.62,-000.44,18.2,25.2,,00.0,0639.6,31.0
2021-11-10T09:04:00Z,00000200,41000000,0000.02,0000.03,-000.01,0000.69,-000.35,0000.14,0000.63,0000.42,0000.02,18.5,25.1,,00.0,0640.5,31.0
2021-11-10T09:05:00Z,00000200,01000000,0000.55,-000.09,0000.31,-000.05,-000.05,-000.03,-000.30,-000.07,0000.08,18.5,25.0,,00.0,0640.5,30.9
2021-11-10T09:06:00Z,00000200,01000000,0000.13,0000.30,0000.26,-000.07,-000.19,0000.28,-000.22,-000.39,0000.04,18.4,25.0,,00.0,0640.5,30.9
2021-11-10T09:07:00Z,00000200,01000000,0000.42,0000.12,-000.22,0000.74,-000.13,-000.35,0000.62,0000.31,0000.15,18.3,24.9,,00.0,0640.5,30.9
2021-11-10T09:08:00Z,00000200,01000000,0000.29,0000.21,0000.22,-000.04,0000.23,0000.14,-000.56,-000.02,-000.41,18.2,24.9,,00.0,0640.5,30.9
2021-11-10T09:09:00Z,00000200,01000000,0000.24,0000.55,0000.27,0000.82,0000.04,0000.46,0000.15,0000.05,0000.26,18.1,24.8,,00.0,0640.5,30.8
2021-11-10T09:10:00Z,00000200,01000000,-000.44,-000.05,-000.05,0000.01,-000.23,-000.40,0000.40,0000.04,-000.08,18.1,24.8,,00.0,0640.5,30.9
2021-11-10T09:11:00Z,00000200,01000000,-000.58,0000.22,0000.40,-000.40,-000.18,0000.32,-000.13,-000.19,-000.26,18.1,24.7,,00.0,0640.5,30.9
2021-11-10T09:12:00Z,00000200,01000000,0000.38,0000.59,0000.46,-000.24,0000.03,0000.28,0000.07,-000.05,0000.51,18.1,24.8,,00.0,0640.5,30.9
2021-11-10T09:13:00Z,00000200,01000000,0000.43,0000.06,0000.17,-000.14,-000.40,0000.06,-000.05,0000.38,-000.13,18.2,24.8,,00.0,0640.5,30.9
2021-11-10T09:14:00Z,00000200,01000000,-000.03,-000.04,-000.10,0000.48,0000.08,0000.09,0000.27,0000.37,0000.20,18.2,24.8,,00.0,0640.5,30.9
2021-11-10T09:15:00Z,00000200,01000000,0000.22,0000.27,-000.21,-000.09,0000.14,-000.43,0000.03,0000.01,0000.26,18.3,24.8,,00.0,0640.5,30.9
2021-11-10T09:16:00Z,00000200,01000000,-000.12,-000.08,0000.27,-000.20,-000.11,0000.36,0000.30,0000.18,0000.35,18.3,24.8,,00.0,0640.5,30.9
2021-11-10T09:17:00Z,00000200,01000000,0000.03,0000.24,0000.27,-000.03,-000.13,0000.37,-000.04,0000.22,-000.18,18.4,24.9,,00.0,0640.5,30.9
2021-11-10T09:18:00Z,00000200,01000000,0000.01,0000.30,0000.21,0000.78,-000.08,0000.31,0000.23,-000.28,-000.14,18.4,24.9,,00.0,0640.5,30.9
2021-11-10T09:19:00Z,00000200,01000000,-000.12,0000.19,0000.07,0000.43,0000.16,0000.29,-000.19,0000.10,0000.16,18.5,24.9,,00.0,0640.6,30.9
2021-11-10T09:20:00Z,00000200,01000000,0000.41,-000.05,0000.12,0000.38,-000.12,0000.16,0000.50,0000.18,-000.20,18.5,24.9,,00.0,0640.6,31.0
2021-11-10T09:21:00Z,00000200,01000000,0000.49,0000.20,0000.33,0000.37,-000.14,0000.07,-000.22,-000.15,-000.13,18.6,24.9,,00.0,0640.6,30.9
2021-11-10T09:22:00Z,00000200,01000000,0000.65,0000.01,0000.38,0000.71,0000.07,0000.35,-000.38,0000.11,0000.25,18.6,25.0,,00.0,0640.6,31.0
2021-11-10T09:23:00Z,00000200,01000000,0000.18,-000.07,0000.43,-000.04,0000.03,0000.00,-000.23,-000.74,-000.59,18.5,24.9,,00.0,0640.6,30.9
2021-11-10T09:24:00Z,00000200,01000000,-000.07,0000.32,0000.18,0000.08,0000.26,0000.07,0000.27,0000.47,0000.42,18.5,24.9,,00.0,0640.6,30.9
2021-11-10T09:25:00Z,00000200,01000000,-000.46,0000.11,0000.15,-000.02,-000.02,0000.31,-000.19,-000.19,-000.05,18.4,24.9,,00.0,0640.6,30.9
2021-11-10T09:26:00Z,00000200,01000000,-000.33,0000.20,0000.25,-000.21,-000.18,-000.14,0000.15,0000.35,0000.14,18.5,24.9,,00.0,0640.6,30.9
2021-11-10T09:27:00Z,00000200,01000000,-000.47,0000.24,0000.18,0000.55,-000.06,0000.26,0000.36,-000.15,0000.08,18.5,24.9,,00.0,0640.6,30.9
2021-11-10T09:28:00Z,00000200,01000000,-000.35,0000.15,0000.26,0000.24,-000.09,-000.00,0000.18,0000.40,0000.29,18.5,24.9,,00.0,0640.6,31.0
2021-11-10T09:29:00Z,00000200,01000000,0000.17,0000.15,0000.54,0000.19,-000.10,0000.11,0000.09,0000.01,-000.09,18.6,24.9,,00.0,0640.6,30.9
2021-11-10T09:30:00Z,00000200,01000000,-000.18,0000.05,0000.37,0000.02,0000.02,-000.12,0000.01,0000.07,0000.10,18.6,25.0,,00.0,0640.6,30.9
2021-11-10T09:31:00Z,00000200,01000000,0000.12,0000.13,0000.23,0000.06,-000.13,-000.11,-000.03,0000.02,0000.15,18.7,25.0,,00.0,0640.6,31.0
2021-11-10T09:32:00Z,00000200,01000000,-000.05,-000.07,0000.10,-000.19,0000.12,0000.06,0000.44,0000.60,0000.05,18.7,25.0,,00.0,0640.6,31.0
2021-11-10T09:33:00Z,00000200,01000000,-000.24,0000.23,0000.35,0000.55,-000.48,0000.19,-000.49,-000.66,0000.17,18.7,25.0,,00.0,0640.6,31.0
2021-11-10T09:34:00Z,00000200,01000000,-000.20,0000.44,0000.05,0000.42,0000.15,-000.03,0000.31,0000.28,-000.13,18.8,25.0,,00.0,0640.6,31.0
2021-11-10T09:35:00Z,00000200,01000000,0000.13,-000.14,0000.10,0000.55,0000.28,0000.16,-000.05,-000.26,-000.26,18.8,25.1,,00.0,0640.7,31.0
2021-11-10T09:36:00Z,00000200,01000000,0000.21,0000.18,0000.28,0000.04,-000.15,0000.10,-000.14,0000.28,-000.00,18.8,25.1,,00.0,0640.7,31.0
2021-11-10T09:37:00Z,00000200,01000000,0000.40,-000.12,0000.41,0000.16,-000.10,0000.24,0000.18,-000.24,0000.23,18.8,25.1,,00.0,0640.6,31.0
2021-11-10T09:38:00Z,00000200,01000000,-000.39,0000.01,0000.20,0000.61,-000.11,0000.04,-000.39,0000.14,-000.21,18.8,25.1,,00.0,0640.6,30.9
2021-11-10T09:39:00Z,00000200,01000000,-000.65,-000.21,0000.16,-000.05,-000.08,-000.03,0000.19,-000.18,0000.09,18.7,25.0,,00.0,0640.6,30.9
2021-11-10T09:40:00Z,00000200,01000000,0000.26,-000.00,0000.31,0000.28,-000.09,0000.07,0000.22,0000.07,0000.07,18.6,25.0,,00.0,0640.6,30.9
2021-11-10T09:41:00Z,00000200,01000000,-000.18,-000.10,0000.16,-000.19,-000.33,0000.01,0000.07,0000.26,-000.13,18.6,25.0,,00.0,0640.6,30.9
2021-11-10T09:42:00Z,00000200,01000000,-000.11,0000.03,0000.33,-000.26,-000.07,-000.12,0000.17,0000.25,0000.26,18.6,25.0,,00.0,0640.6,30.9
2021-11-10T09:43:00Z,00000200,01000000,-000.16,-000.19,0000.35,0000.04,-000.16,0000.18,-000.13,-000.15,0000.32,18.6,25.0,,00.0,0640.6,30.9
2021-11-10T09:44:00Z,00000200,01000000,-000.00,-000.14,0000.15,0000.10,0000.11,-000.01,0000.33,-000.08,0000.03,18.7,25.0,,00.0,0640.7,31.0
2021-11-10T09:45:00Z,00000200,01000000,-000.11,0000.15,0000.15,-000.22,0000.03,0000.01,0000.05,0000.53,0000.19,18.7,25.1,,00.0,0640.7,31.0
2021-11-10T09:46:00Z,00000200,01000000,0001.16,0000.22,0000.25,0000.35,-000.34,0000.00,0000.05,0000.12,-000.24,18.8,25.1,,00.0,0640.7,31.0
2021-11-10T09:47:00Z,00000200,01000000,0000.30,0000.68,0000.19,0000.73,0000.30,-000.03,0000.12,-000.27,0000.08,18.8,25.1,,00.0,0640.7,31.0
2021-11-10T09:48:00Z,00000200,01000000,-000.28,0000.04,0000.28,0000.25,0000.36,0000.33,-000.26,-000.14,0000.07,18.8,25.1,,00.0,0640.8,31.0
2021-11-10T09:49:00Z,00000200,01000000,0000.65,0000.31,-000.00,0000.08,-000.11,0000.19,-000.16,0000.07,-000.61,18.9,25.1,,00.0,0640.8,31.0
2021-11-10T09:50:00Z,00000200,01000000,0000.44,0000.00,0000.27,-000.17,-000.02,0000.26,-000.18,-000.65,0000.13,18.8,25.1,,00.0,0640.8,31.0
2021-11-10T09:51:00Z,00000200,01000000,0000.30,0000.06,0000.20,-000.17,-000.21,0000.14,0000.13,0000.28,-000.17,18.8,25.1,,00.0,0640.8,31.0
2021-11-10T09:52:00Z,00000200,01000000,0000.30,0000.22,0000.00,0000.20,0000.09,0000.15,-000.05,0000.01,0000.21,18.7,25.1,,00.0,0640.7,30.9
2021-11-10T09:53:00Z,00000200,01000000,0000.54,0000.26,0000.45,0000.06,0000.08,0000.14,-000.03,0000.19,-000.39,18.6,25.0,,00.0,0640.7,30.9
2021-11-10T09:54:00Z,00000200,01000000,-000.04,0000.17,0000.36,0000.41,-000.21,-000.01,0000.03,0000.12,0000.37,18.5,25.0,,00.0,0640.8,30.9
2021-11-10T09:55:00Z,00000200,01000000,-000.18,0000.23,0000.15,0000.30,-000.17,0000.20,-000.18,-000.55,-000.50,18.4,24.9,,00.0,0640.8,30.9
2021-11-10T09:56:00Z,00000200,01000000,0000.38,-000.16,0000.11,0000.31,-000.09,-000.01,-000.07,0000.06,0000.22,18.4,24.9,,00.0,0640.8,30.9
2021-11-10T09:57:00Z,00000200,41000000,,,,,,,0001.20,0000.85,0000.84,18.5,25.0,,00.0,0640.8,30.9
2021-11-10T09:58:00Z,00000200,61000000,,,,,,,-000.38,0000.08,-000.25,18.2,25.1,,00.0,0639.9,30.9
2021-11-10T09:59:00Z,00000200,21000000,,,,,,,-000.15,-000.45,-000.32,18.2,25.2,,00.0,0639.9,30.9
